{"data":{"norad_id":68786,"intl_designator":"2026-086W","name":"STARLINK-37404","alt_names":[],"object_type":"PAYLOAD","status":"ACTIVE","operator":null,"country":"US","launch_date":"2026-04-19","launch_site_code":"AFWTR","launch_vehicle":null,"mission":null,"orbit_class":"UNKNOWN","rcs_meters":null,"size_class":null,"mass_kg":null,"dimensions":null,"purposes":["comms"],"wikipedia_slug":null,"has_3d_model":false,"image_url":null,"decayed_at":null,"tle_current":{"epoch":"2026-05-25T00:37:15.485088Z","epoch_age_seconds":68736,"freshness":"FRESH","line1":"1 68786U 26086W   26145.02587367  .00137365  00000+0  92111-3 0  9994","line2":"2 68786  97.2861 181.9124 0003613 174.2014 185.9293 15.74828639  5519","mean_motion":15.74828639,"eccentricity":0.0003613,"inclination_deg":97.2861,"raan_deg":181.9124,"arg_perigee_deg":174.2014,"mean_anomaly_deg":185.9293,"bstar":0.00092111,"rev_number":551,"period_min":91.438519997603,"perigee_km":342.68974091677,"apogee_km":347.54796559634,"semimajor_km":6723.2558532566,"source":"CELESTRAK","updated_at":"2026-05-25T13:38:22.038645Z"}}}